Hourly Data Report for July 05, 2016

OTTAWA INTL A
ONTARIO

45°19'00.000" N
75°40'00.000" W
114.90 m
6106001
71628
YOW

Download Data

Hourly Data (July 2016)
Hourly Data Report for July 5, 2016
TIME
LST
Temp Definition
°C
Dew Point Definition
°C
Rel Hum Definition
%
Precip. Amount Definition
mm

Wind Dir Definition
10's deg

Wind Spd Definition
km/h
Visibility Definition
km
Stn Press Definition
kPa
Hmdx Definition


Wind Chill Definition


Weather Definition


00:00 17.1 9.1 59   26 4 24.1 99.58     LegendNANA
01:00 15.5 8.3 62   20 7 24.1 99.58     Clear
02:00 13.6 8.7 72   19 7 24.1 99.54     LegendNANA
03:00 14.1 9.2 72   18 12 24.1 99.50     LegendNANA
04:00 13.7 9.4 75   21 7 24.1 99.47     Mainly Clear
05:00 13.6 9.9 78   20 5 24.1 99.46     LegendNANA
06:00 17.4 10.6 64   27 9 24.1 99.54     LegendNANA
07:00 20.1 12.0 59   24 7 24.1 99.51     Mostly Cloudy
08:00 22.5 12.0 51   21 7 24.1 99.49 25   LegendNANA
09:00 24.9 11.7 43   25 9 24.1 99.48 27   LegendNANA
10:00 27.1 12.2 39   25 11 24.1 99.43 29   Clear
11:00 28.3 11.2 34   20 10 24.1 99.42 30   LegendNANA
12:00 29.4 10.3 30   26 12 24.1 99.41 31   LegendNANA
13:00 29.9 11.7 32   26 10 24.1 99.38 32   Clear
14:00 31.2 10.9 28   23 15 24.1 99.26 33   LegendNANA
15:00 31.5 11.7 29   24 20 24.1 99.25 34   LegendNANA
16:00 31.9 12.5 30   26 17 24.1 99.24 34   Mainly Clear
17:00 31.3 11.5 29   27 15 24.1 99.20 33   LegendNANA
18:00 30.4 11.7 31   25 21 24.1 99.21 33   LegendNANA
19:00 28.5 13.1 38   26 15 24.1 99.27 31   Mainly Clear
20:00 24.3 14.0 52   26 11 24.1 99.30 28   LegendNANA
21:00 25.5 14.5 50   27 13 24.1 99.37 29   LegendNANA
22:00 24.2 14.5 54   27 14 24.1 99.41 28   Clear
23:00 21.9 14.7 63   26 14 24.1 99.46 26   LegendNANA

Notes on Data Quality.

Legend

  • E = Estimated
  • M = Missing
  • NA = Not Available*
  • [empty] = Indicates an unobserved value
Date modified: